Location: Newark
(7.0858°N, 171.3717°E)
Time: 04:49:22
(UTC+00:00)

Courier 1B Rocket - Pass Details

Date: 05 December 2020
Orbit: 920 x 1202 km, 28.2° (Epoch: 20 January)

Event Time Altitude Azimuth Distance (km) Brightness Sun altitude
Rises 21:27:30 0° 306° (NW) 4,082 7.8 37.3°
Reaches altitude 10° 21:30:28 10° 310° (NW) 3,104 7.2 37.9°
Maximum altitude 21:38:01 56° 27° (NNE) 1,347 6.2 39.5°
Drops below altitude 10° 21:45:10 10° 104° (ESE) 2,947 8.5 40.9°
Sets 21:47:54 0° 108° (ESE) 3,863 8.9 41.4°
